User: anonymous   Login
Location: High Meadows Obseravatory
(40.7417°N, 111.5713°W)
Time: 16:07:44
(UTC-07:00)
Language:

BlueWalker 3 - Orbit

View from above orbital plane
View from above orbital plane
View from above satellite
View from above satellite

Ground track
Ground track

The orbit data is extracted from the following two-line orbital elements,

1 53807U 22111AL  23337.39461807  .00008026  00000-0  34927-3 0  9990
2 53807  53.2383  18.2062 0009968 205.2835 154.7677 15.23101058 68215
Epoch (UTC): 03 December 2023 09:28:15
Eccentricity: 0.0009968
inclination: 53.2383°
perigee height: 489 km
apogee height: 503 km
right ascension of ascending node: 18.2062°
argument of perigee: 205.2835°
revolutions per day: 15.23101058
mean anomaly at epoch: 154.7677°
orbit number at epoch: 6821

The dashed part of the orbit path shows where the satellite is in the earth's shadow,  

DLR